H1 CPF 2 NER 2024 4 11 9 102 01 glonass146 H2 2216101 9146 54377 2024 4 11 0 0 0 2024 4 14 23 45 0 900 1 1 0 0 0 1 H9 10 0 60411 0.00000 0 20542401.663 11942192.682 9331812.871 10 0 60411 900.00000 0 19321796.931 11407850.156 12173373.306 10 0 60411 1800.00000 0 17739909.226 10885396.198 14779002.270 10 0 60411 2700.00000 0 15825689.087 10428296.885 17098185.304 10 0 60411 3600.00000 0 13619760.253 10084451.478 19085941.613 10 0 60411 4500.00000 0 11172938.127 9894032.184 20703691.876 10 0 60411 5400.00000 0 8544333.845 9887661.895 21920004.073 10 0 60411 6300.00000 0 5799121.410 10085006.651 22711203.373 10 0 60411 7200.00000 0 3006059.243 10493842.355 23061834.531 10 0 60411 8100.00000 0 234867.577 11109635.635 22964967.880 10 0 60411 9000.00000 0 -2446430.776 11915657.534 22422342.694 10 0 60411 9900.00000 0 -4974097.065 12883626.506 21444344.568 10 0 60411 10800.00000 0 -7291084.116 13974855.209 20049816.341 10 0 60411 11700.00000 0 -9349165.344 15141854.406 18265705.145 10 0 60411 12600.00000 0 -11110696.970 16330327.907 16126551.186 10 0 60411 13500.00000 0 -12549940.158 17481475.730 13673827.009 10 0 60411 14400.00000 0 -13653887.873 18534509.221 10955138.968 10 0 60411 15300.00000 0 -14422561.801 19429272.334 8023305.706 10 0 60411 16200.00000 0 -14868766.957 20108858.233 4935331.135 10 0 60411 17100.00000 0 -15017314.525 20522110.040 1751291.900 10 0 60411 18000.00000 0 -14903746.123 20625898.936 -1466838.502 10 0 60411 18900.00000 0 -14572614.121 20387082.070 -4656405.259 10 0 60411 19800.00000 0 -14075391.670 19784056.067 -7755302.634 10 0 60411 20700.00000 0 -13468102.088 18807839.186 -10703193.975 10 0 60411 21600.00000 0 -12808769.289 17462635.241 -13442696.310 10 0 60411 22500.00000 0 -12154798.510 15765854.634 -15920505.394 10 0 60411 23400.00000 0 -11560399.394 13747590.987 -18088438.412 10 0 60411 24300.00000 0 -11074161.424 11449575.087 -19904373.576 10 0 60411 25200.00000 0 -10736884.836 8923649.894 -21333068.236 10 0 60411 26100.00000 0 -10579758.910 6229830.587 -22346839.800 10 0 60411 27000.00000 0 -10622964.462 3434030.778 -22926096.824 10 0 60411 27900.00000 0 -10874759.070 605549.766 -23059710.723 10 0 60411 28800.00000 0 -11331082.991 -2185574.621 -22745221.751 10 0 60411 29700.00000 0 -11975701.650 -4871237.861 -21988876.212 10 0 60411 30600.00000 0 -12780877.957 -7387854.873 -20805494.964 10 0 60411 31500.00000 0 -13708545.535 -9678753.941 -19218176.504 10 0 60411 32400.00000 0 -14711932.973 -11696280.196 -17257840.901 10 0 60411 33300.00000 0 -15737570.493 -13403522.750 -14962623.738 10 0 60411 34200.00000 0 -16727594.411 -14775595.215 -12377132.018 10 0 60411 35100.00000 0 -17622252.531 -15800418.134 -9551576.504 10 0 60411 36000.00000 0 -18362505.200 -16478972.495 -6540797.251 10 0 60411 36900.00000 0 -18892612.778 -16825015.454 -3403201.152 10 0 60411 37800.00000 0 -19162600.941 -16864271.820 -199631.951 10 0 60411 38700.00000 0 -19130500.227 -16633136.545 3007805.551 10 0 60411 39600.00000 0 -18764265.836 -16176943.818 6156944.445 10 0 60411 40500.00000 0 -18043296.939 -15547876.270 9186754.882 10 0 60411 41400.00000 0 -16959491.532 -14802602.662 12038520.512 10 0 60411 42300.00000 0 -15517792.140 -13999743.554 14656969.805 10 0 60411 43200.00000 0 -13736198.758 -13197271.445 16991340.866 10 0 60411 44100.00000 0 -11645247.547 -12449954.439 18996359.711 10 0 60411 45000.00000 0 -9286975.857 -11806950.561 20633113.648 10 0 60411 45900.00000 0 -6713415.273 -11309653.433 21869803.441 10 0 60411 46800.00000 0 -3984673.802 -10989879.576 22682360.196 10 0 60411 47700.00000 0 -1166685.280 -10868473.417 23054915.263 10 0 60411 48600.00000 0 1671282.177 -10954388.802 22980114.142 10 0 60411 49500.00000 0 4459256.883 -11244286.105 22459267.998 10 0 60411 50400.00000 0 7129225.552 -11722662.688 21502339.289 10 0 60411 51300.00000 0 9617717.152 -12362512.248 20127760.903 10 0 60411 52200.00000 0 11868202.082 -13126486.529 18362091.195 10 0 60411 53100.00000 0 13833207.295 -13968511.686 16239510.408 10 0 60411 54000.00000 0 15476059.429 -14835792.221 13801167.059 10 0 60411 54900.00000 0 16772183.185 -15671118.779 11094385.884 10 0 60411 55800.00000 0 17709900.449 -16415382.700 8171751.993 10 0 60411 56700.00000 0 18290696.570 -17010191.042 5090088.591 10 0 60411 57600.00000 0 18528942.595 -17400470.913 1909348.174 10 0 60411 58500.00000 0 18451085.353 -17536951.986 -1308560.772 10 0 60411 59400.00000 0 18094340.041 -17378420.859 -4500987.911 10 0 60411 60300.00000 0 17504941.267 -16893650.417 -7605771.325 10 0 60411 61200.00000 0 16736027.495 -16062921.106 -10562458.638 10 0 60411 62100.00000 0 15845249.547 -14879068.415 -13313493.990 10 0 60411 63000.00000 0 14892205.545 -13348011.184 -15805346.620 10 0 60411 63900.00000 0 13935811.964 -11488737.520 -17989558.208 10 0 60411 64800.00000 0 13031722.875 -9332748.320 -19823688.076 10 0 60411 65700.00000 0 12229907.071 -6922981.343 -21272137.718 10 0 60411 66600.00000 0 11572485.629 -4312260.777 -22306838.845 10 0 60411 67500.00000 0 11091921.012 -1561337.072 -22907792.112 10 0 60411 68400.00000 0 10809633.497 1263401.233 -23063446.836 10 0 60411 69300.00000 0 10735102.473 4092448.436 -22770915.213 10 0 60411 70200.00000 0 10865489.362 6855830.734 -22036017.793 10 0 60411 71100.00000 0 11185797.000 9485773.840 -20873160.186 10 0 60411 72000.00000 0 11669557.653 11919279.000 -19305044.070 10 0 60411 72900.00000 0 12280019.782 14100501.413 -17362218.675 10 0 60411 73800.00000 0 12971782.835 15982833.428 -15082481.756 10 0 60411 74700.00000 0 13692810.664 17530607.283 -12510141.899 10 0 60411 75600.00000 0 14386738.483 18720348.039 -9695156.489 10 0 60411 76500.00000 0 14995375.973 19541526.098 -6692162.027 10 0 60411 77400.00000 0 15461301.259 19996779.613 -3559415.539 10 0 60411 78300.00000 0 15730436.430 20101598.895 -357667.447 10 0 60411 79200.00000 0 15754496.200 19883487.394 2851012.453 10 0 60411 80100.00000 0 15493206.767 19380635.661 6004433.264 10 0 60411 81000.00000 0 14916201.441 18640164.741 9041482.578 10 0 60411 81900.00000 0 14004513.168 17716013.305 11903304.495 10 0 60411 82800.00000 0 12751600.772 16666557.443 14534433.595 10 0 60411 83700.00000 0 11163865.230 15552063.063 16883863.453 10 0 60411 84600.00000 0 9260633.356 14432077.561 18906029.588 10 0 60411 85500.00000 0 7073608.354 13362869.837 20561688.367 10 0 60412 0.00000 0 4645808.858 12395025.609 21818675.389 10 0 60412 900.00000 0 2030037.642 11571297.925 22652529.717 10 0 60412 1800.00000 0 -713054.841 10924803.891 23046970.580 10 0 60412 2700.00000 0 -3517237.736 10477641.331 22994219.598 10 0 60412 3600.00000 0 -6313202.353 10239984.776 22495160.283 10 0 60412 4500.00000 0 -9031198.880 10209698.516 21559331.863 10 0 60412 5400.00000 0 -11603698.906 10372483.633 20204756.602 10 0 60412 6300.00000 0 -13967974.049 10702553.606 18457602.832 10 0 60412 7200.00000 0 -16068484.017 11163810.902 16351689.061 10 0 60412 8100.00000 0 -17858974.868 11711475.827 13927837.542 10 0 60412 9000.00000 0 -19304199.864 12294099.570 11233088.791 10 0 60412 9900.00000 0 -20381190.713 12855876.767 8319791.515 10 0 60412 10800.00000 0 -21080025.605 13339159.819 5244585.203 10 0 60412 11700.00000 0 -21404061.565 13687068.110 2067295.116 10 0 60412 12600.00000 0 -21369621.219 13846080.773 -1150238.354 10 0 60412 13500.00000 0 -21005147.359 13768501.992 -4345372.400 10 0 60412 14400.00000 0 -20349861.399 13414692.969 -7455891.895 10 0 60412 15300.00000 0 -19451983.143 12754974.488 -10421231.608 10 0 60412 16200.00000 0 -18366588.060 11771118.079 -13183665.506 10 0 60412 17100.00000 0 -17153193.696 10457361.366 -15689438.842 10 0 60412 18000.00000 0 -15873178.328 8820903.589 -17889820.058 10 0 60412 18900.00000 0 -14587141.830 6881859.575 -19742051.553 10 0 60412 19800.00000 0 -13352320.792 4672673.405 -21210180.609 10 0 60412 20700.00000 0 -12220167.254 2237016.023 -22265754.522 10 0 60412 21600.00000 0 -11234192.957 -371787.310 -22888366.969 10 0 60412 22500.00000 0 -10428169.342 -3092734.192 -23066045.741 10 0 60412 23400.00000 0 -9824758.165 -5859444.555 -22795475.176 10 0 60412 24300.00000 0 -9434629.096 -8602686.897 -22082049.925 10 0 60412 25200.00000 0 -9256100.032 -11253026.612 -20939759.837 10 0 60412 26100.00000 0 -9275313.814 -13743486.807 -19390908.915 10 0 60412 27000.00000 0 -9466942.505 -16012111.817 -17465674.372 10 0 60412 27900.00000 0 -9795388.373 -18004327.829 -15201514.663 10 0 60412 28800.00000 0 -10216429.994 -19675003.532 -12642438.220 10 0 60412 29700.00000 0 -10679243.366 -20990126.302 -9838147.111 10 0 60412 30600.00000 0 -11128712.380 -21928025.504 -6843072.192 10 0 60412 31500.00000 0 -11507930.955 -22480093.201 -3715318.401 10 0 60412 32400.00000 0 -11760791.179 -22650973.525 -515540.483 10 0 60412 33300.00000 0 -11834548.378 -22458214.084 2694229.222 10 0 60412 34200.00000 0 -11682254.903 -21931395.009 5851778.376 10 0 60412 35100.00000 0 -11264960.110 -21110773.034 8895914.678 10 0 60412 36000.00000 0 -10553583.811 -20045498.056 11767645.403 10 0 60412 36900.00000 0 -9530383.993 -18791477.179 14411313.992 10 0 60412 37800.00000 0 -8189956.608 -17408975.821 16775672.202 10 0 60412 38700.00000 0 -6539724.586 -15960056.161 18814867.620 10 0 60412 39600.00000 0 -4599894.443 -14505959.822 20489328.034 10 0 60412 40500.00000 0 -2402880.799 -13104543.771 21766526.134 10 0 60412 41400.00000 0 7778.930 -11807876.166 22621610.210 10 0 60412 42300.00000 0 2578976.340 -10660092.127 23037888.967 10 0 60412 43200.00000 0 5249987.756 -9695598.723 23007161.092 10 0 60412 44100.00000 0 7954754.523 -8937703.974 22529882.978 10 0 60412 45000.00000 0 10624394.860 -8397727.246 21615170.782 10 0 60412 45900.00000 0 13189844.409 -8074628.474 20280635.922 10 0 60412 46800.00000 0 15584516.888 -7955172.142 18552056.136 10 0 60412 47700.00000 0 17746874.830 -8014619.610 16462887.251 10 0 60412 48600.00000 0 19622803.652 -8217921.200 14053623.954 10 0 60412 49500.00000 0 21167689.956 -8521358.221 11371020.857 10 0 60412 50400.00000 0 22348116.809 -8874565.885 8467188.202 10 0 60412 51300.00000 0 23143104.555 -9222851.553 5398579.321 10 0 60412 52200.00000 0 23544844.543 -9509709.811 2224889.476 10 0 60412 53100.00000 0 23558894.530 -9679427.045 -992112.061 10 0 60412 54000.00000 0 23203827.354 -9679664.037 -4189793.193 10 0 60412 54900.00000 0 22510347.762 -9463905.715 -7305888.805 10 0 60412 55800.00000 0 21519915.098 -8993672.697 -10279723.978 10 0 60412 56700.00000 0 20282930.664 -8240399.414 -13053405.517 10 0 60412 57600.00000 0 18856567.175 -7186897.822 -15572957.468 10 0 60412 58500.00000 0 17302332.890 -5828343.594 -17789377.587 10 0 60412 59400.00000 0 15683474.094 -4172742.072 -19659593.627 10 0 60412 60300.00000 0 14062326.109 -2240853.579 -21147300.656 10 0 60412 61200.00000 0 12497724.836 -65580.628 -22223663.282 10 0 60412 62100.00000 0 11042587.690 2309157.644 -22867869.636 10 0 60412 63000.00000 0 9741765.217 4830016.985 -23067527.101 10 0 60412 63900.00000 0 8630252.744 7436219.186 -22818892.958 10 0 60412 64800.00000 0 7731835.924 10061860.063 -22126936.425 10 0 60412 65700.00000 0 7058225.487 12638438.449 -21005231.708 10 0 60412 66600.00000 0 6608715.837 15097501.317 -19475684.903 10 0 60412 67500.00000 0 6370380.096 17373295.570 -17568100.602 10 0 60412 68400.00000 0 6318791.723 19405316.933 -15319596.984 10 0 60412 69300.00000 0 6419240.909 21140650.720 -12773880.962 10 0 60412 70200.00000 0 6628393.282 22536007.960 -9980397.521 10 0 60412 71100.00000 0 6896320.138 23559373.230 -6993369.706 10 0 60412 72000.00000 0 7168813.953 24191196.522 -3870747.832 10 0 60412 72900.00000 0 7389891.153 24425080.548 -673088.131 10 0 60412 73800.00000 0 7504376.252 24267935.687 2537617.602 10 0 60412 74700.00000 0 7460458.280 23739597.114 5699138.841 10 0 60412 75600.00000 0 7212111.743 22871920.982 8750206.690 10 0 60412 76500.00000 0 6721279.888 21707397.914 11631694.882 10 0 60412 77400.00000 0 5959728.153 20297342.162 14287758.908 10 0 60412 78300.00000 0 4910489.424 18699732.237 16666911.723 10 0 60412 79200.00000 0 3568839.655 16976793.094 18723015.814 10 0 60412 80100.00000 0 1942761.929 15192420.512 20416172.967 10 0 60412 81000.00000 0 52878.203 13409554.723 21713495.162 10 0 60412 81900.00000 0 -2068150.097 11687612.212 22589742.116 10 0 60412 82800.00000 0 -4376729.460 10080082.246 23027813.453 10 0 60412 83700.00000 0 -6819905.525 8632387.759 23019086.062 10 0 60412 84600.00000 0 -9337334.830 7380099.399 22563589.858 10 0 60412 85500.00000 0 -11863576.922 6347576.962 21670018.002 10 0 60413 0.00000 0 -14330612.956 5547094.956 20355570.710 10 0 60413 900.00000 0 -16670488.664 4978488.493 18645633.791 10 0 60413 1800.00000 0 -18817969.246 4629335.587 16573298.833 10 0 60413 2700.00000 0 -20713100.360 4475666.997 14178730.784 10 0 60413 3600.00000 0 -22303565.051 4483175.093 11508395.751 10 0 60413 4500.00000 0 -23546739.013 4608870.421 8614162.592 10 0 60413 5400.00000 0 -24411357.287 4803115.961 5552295.349 10 0 60413 6300.00000 0 -24878721.730 5011952.654 2382356.036 10 0 60413 7200.00000 0 -24943397.784 5179616.971 -833960.468 10 0 60413 8100.00000 0 -24613370.684 5251142.779 -4034036.020 10 0 60413 9000.00000 0 -23909654.218 5174935.888 -7155558.697 10 0 60413 9900.00000 0 -22865368.551 4905210.567 -10137746.955 10 0 60413 10800.00000 0 -21524326.375 4404183.252 -12922543.355 10 0 60413 11700.00000 0 -19939187.606 3643928.957 -15455753.467 10 0 60413 12600.00000 0 -18169261.240 2607820.520 -17688106.804 10 0 60413 13500.00000 0 -16278047.789 1291488.712 -19576218.586 10 0 60413 14400.00000 0 -14330626.465 -296738.199 -21083433.375 10 0 60413 15300.00000 0 -12390997.466 -2135934.602 -22180534.343 10 0 60413 16200.00000 0 -10519491.142 -4193213.657 -22846304.851 10 0 60413 17100.00000 0 -8770352.418 -6424873.045 -23067932.176 10 0 60413 18000.00000 0 -7189601.076 -8778002.584 -22841246.395 10 0 60413 18900.00000 0 -5813256.358 -11192486.753 -22170790.719 10 0 60413 19800.00000 0 -4665998.724 -13603318.794 -21069722.776 10 0 60413 20700.00000 0 -3760323.106 -15943130.201 -19559549.480 10 0 60413 21600.00000 0 -3096217.145 -18144830.612 -17669701.261 10 0 60413 22500.00000 0 -2661375.999 -20144248.700 -15436954.247 10 0 60413 23400.00000 0 -2431942.836 -21882664.599 -12904711.883 10 0 60413 24300.00000 0 -2373742.242 -23309129.154 -10122160.002 10 0 60413 25200.00000 0 -2443953.274 -24382474.104 -7143311.702 10 0 60413 26100.00000 0 -2593150.633 -25072930.116 -4025960.487 10 0 60413 27000.00000 0 -2767627.165 -25363286.046 -830561.854 10 0 60413 27900.00000 0 -2911899.224 -25249541.722 2380935.195 10 0 60413 28800.00000 0 -2971288.935 -24741027.690 5546284.215 10 0 60413 29700.00000 0 -2894474.279 -23859987.597 8604142.027 10 0 60413 30600.00000 0 -2635899.407 -22640641.042 11495251.171 10 0 60413 31500.00000 0 -2157943.503 -21127766.322 14163581.519 10 0 60413 32400.00000 0 -1432756.562 -19374862.180 16557409.525 10 0 60413 33300.00000 0 -443684.440 -17441965.129 18630314.757 10 0 60413 34200.00000 0 813777.443 -15393212.964 20342075.022 10 0 60413 35100.00000 0 2331542.832 -13294255.426 21659443.370 10 0 60413 36000.00000 0 4089025.710 -11209619.151 22556792.429 10 0 60413 36900.00000 0 6053761.606 -9200135.881 23016613.926 10 0 60413 37800.00000 0 8182535.157 -7320540.234 23029863.782 10 0 60413 38700.00000 0 10422968.924 -5617336.378 22596145.926 10 0 60413 39600.00000 0 12715509.251 -4127021.965 21723730.698 10 0 60413 40500.00000 0 14995728.239 -2874743.004 20429406.684 10 0 60413 41400.00000 0 17196847.479 -1873435.632 18738167.784 10 0 60413 42300.00000 0 19252379.388 -1123490.616 16682740.397 10 0 60413 43200.00000 0 21098776.575 -612954.688 14302958.661 10 0 60413 44100.00000 0 22677978.714 -318260.272 11644998.791 10 0 60413 45000.00000 0 23939750.028 -205452.894 8760486.528 10 0 60413 45900.00000 0 24843708.796 -231864.305 5705494.551 10 0 60413 46800.00000 0 25360962.822 -348160.206 2539449.229 10 0 60413 47700.00000 0 25475281.160 -500675.245 -676031.638 10 0 60413 48600.00000 0 25183751.913 -633935.352 -3878346.745 10 0 60413 49500.00000 0 24496897.732 -693259.258 -7005140.361 10 0 60413 50400.00000 0 23438243.715 -627327.421 -9995527.323 10 0 60413 51300.00000 0 22043355.935 -390607.918 -12791288.858 10 0 60413 52200.00000 0 20358391.308 54465.017 -15338014.797 10 0 60413 53100.00000 0 18438220.445 735653.426 -17586168.943 10 0 60413 54000.00000 0 16344203.106 1669497.953 -19492056.277 10 0 60413 54900.00000 0 14141710.444 2860380.849 -21018672.921 10 0 60413 55800.00000 0 11897498.574 4300109.867 -22136422.440 10 0 60413 56700.00000 0 9677043.899 5968041.016 -22823685.018 10 0 60413 57600.00000 0 7541951.644 7831735.318 -23067229.160 10 0 60413 58500.00000 0 5547545.563 9848122.184 -22862458.786 10 0 60413 59400.00000 0 3740738.612 11965120.822 -22213491.823 10 0 60413 60300.00000 0 2158272.208 14123652.009 -21133069.679 10 0 60413 61200.00000 0 825395.971 16259956.342 -19642300.073 10 0 60413 62100.00000 0 -244958.806 18308122.471 -17770238.845 10 0 60413 63000.00000 0 -1052479.464 20202720.137 -15553319.240 10 0 60413 63900.00000 0 -1609235.541 21881428.625 -13034639.995 10 0 60413 64800.00000 0 -1938917.491 23287551.419 -10263126.156 10 0 60413 65700.00000 0 -2075584.253 24372312.656 -7292578.838 10 0 60413 66600.00000 0 -2061973.811 25096840.254 -4180632.357 10 0 60413 67500.00000 0 -1947448.960 25433753.308 -987638.807 10 0 60413 68400.00000 0 -1785665.688 25368287.906 2224498.525 10 0 60413 69300.00000 0 -1632062.994 24898914.979 5393520.370 10 0 60413 70200.00000 0 -1541280.289 24037424.680 8458012.455 10 0 60413 71100.00000 0 -1564611.406 22808474.039 11358589.316 10 0 60413 72000.00000 0 -1747602.627 21248616.800 14039038.371 10 0 60413 72900.00000 0 -2127896.018 19404855.823 16447402.621 10 0 60413 73800.00000 0 -2733409.082 17332778.036 18536981.623 10 0 60413 74700.00000 0 -3580927.739 15094349.172 20267231.917 10 0 60413 75600.00000 0 -4675172.448 12755459.346 21604550.098 10 0 60413 76500.00000 0 -6008377.767 10383320.756 22522923.902 10 0 60413 77400.00000 0 -7560404.345 8043824.796 23004438.990 10 0 60413 78300.00000 0 -9299380.379 5798967.533 23039631.755 10 0 60413 79200.00000 0 -11182847.640 3704449.699 22627681.097 10 0 60413 80100.00000 0 -13159366.136 1807550.291 21776434.952 10 0 60413 81000.00000 0 -15170512.334 145361.716 20502270.254 10 0 60413 81900.00000 0 -17153189.158 -1256540.363 18829787.998 10 0 60413 82800.00000 0 -19042152.594 -2384937.205 16791348.127 10 0 60413 83700.00000 0 -20772650.127 -3239282.135 14426452.052 10 0 60413 84600.00000 0 -22283060.986 -3831477.572 11780983.676 10 0 60413 85500.00000 0 -23517427.402 -4185123.352 8906322.794 10 0 60414 0.00000 0 -24427770.064 -4334268.238 5858347.862 10 0 60414 900.00000 0 -24976089.993 -4321717.745 2696345.702 10 0 60414 1800.00000 0 -25135970.393 -4196970.285 -518146.165 10 0 60414 2700.00000 0 -24893711.524 -4013870.192 -3722546.800 10 0 60414 3600.00000 0 -24248948.443 -3828077.971 -6854460.159 10 0 60414 4500.00000 0 -23214725.349 -3694466.520 -9852900.891 10 0 60414 5400.00000 0 -21817022.819 -3664555.169 -12659492.201 10 0 60414 6300.00000 0 -20093757.699 -3784091.772 -15219611.291 10 0 60414 7200.00000 0 -18093297.937 -4090886.645 -17483459.089 10 0 60414 8100.00000 0 -15872555.219 -4612991.200 -19407032.793 10 0 60414 9000.00000 0 -13494735.963 -5367299.177 -20952982.074 10 0 60414 9900.00000 0 -11026845.554 -6358630.171 -22091332.325 10 0 60414 10800.00000 0 -8537050.591 -7579334.473 -22800061.399 10 0 60414 11700.00000 0 -6092009.518 -9009436.061 -23065519.270 10 0 60414 12600.00000 0 -3754282.846 -10617307.750 -22882683.360 10 0 60414 13500.00000 0 -1579930.308 -12360850.186 -22255245.463 10 0 60414 14400.00000 0 383605.980 -14189125.213 -21195529.468 10 0 60414 15300.00000 0 2099245.532 -16044375.259 -19724242.227 10 0 60414 16200.00000 0 3541569.782 -17864344.307 -17870063.033 10 0 60414 17100.00000 0 4697626.373 -19584803.605 -15669080.055 10 0 60414 18000.00000 0 5567205.969 -21142176.745 -13164084.969 10 0 60414 18900.00000 0 6162582.115 -22476154.693 -10403739.553 10 0 60414 19800.00000 0 6507727.025 -23532191.867 -7441630.415 10 0 60414 20700.00000 0 6637037.953 -24263779.275 -4335230.128 10 0 60414 21600.00000 0 6593629.140 -24634399.992 -1144784.808 10 0 60414 22500.00000 0 6427262.292 -24619085.656 2067850.482 10 0 60414 23400.00000 0 6192003.575 -24205508.963 5240406.096 10 0 60414 24300.00000 0 5943706.358 -23394566.786 8311399.036 10 0 60414 25200.00000 0 5737426.018 -22200429.693 11221318.104 10 0 60414 26100.00000 0 5624875.855 -20650055.517 13913770.387 10 0 60414 27000.00000 0 5652031.290 -18782187.010 16336567.402 10 0 60414 27900.00000 0 5856983.257 -16645874.886 18442730.452 10 0 60414 28800.00000 0 6268131.271 -14298587.048 20191396.317 10 0 60414 29700.00000 0 6902792.485 -11803981.812 21548606.371 10 0 60414 30600.00000 0 7766285.827 -9229436.672 22487964.380 10 0 60414 31500.00000 0 8851530.655 -6643434.203 22991150.553 10 0 60414 32400.00000 0 10139178.072 -4112912.530 23048282.043 10 0 60414 33300.00000 0 11598271.001 -1700689.339 22658112.719 10 0 60414 34200.00000 0 13187407.190 536934.486 21828067.838 10 0 60414 35100.00000 0 14856358.268 2552292.751 20574112.160 10 0 60414 36000.00000 0 16548078.824 4308105.796 18920453.029 10 0 60414 36900.00000 0 18201022.847 5778793.620 16899082.971 10 0 60414 37800.00000 0 19751671.529 6951295.676 14549169.494 10 0 60414 38700.00000 0 21137167.073 7825363.167 11916302.793 10 0 60414 39600.00000 0 22297941.968 8413311.665 9051615.085 10 0 60414 40500.00000 0 23180232.873 8739244.645 6010788.165 10 0 60414 41400.00000 0 23738372.488 8837781.011 2852968.287 10 0 60414 42300.00000 0 23936761.765 8752340.857 -360390.182 10 0 60414 43200.00000 0 23751438.056 8533062.800 -3566729.170 10 0 60414 44100.00000 0 23171171.810 8234442.083 -6703614.929 10 0 60414 45000.00000 0 22198044.410 7912790.816 -9709964.535 10 0 60414 45900.00000 0 20847481.951 7623629.377 -12527245.713 10 0 60414 46800.00000 0 19147742.931 7419120.954 -15100625.451 10 0 60414 47700.00000 0 17138881.249 7345659.240 -17380044.031 10 0 60414 48600.00000 0 14871228.107 7441712.552 -19321192.915 10 0 60414 49500.00000 0 12403456.837 7736016.408 -20886377.164 10 0 60414 50400.00000 0 9800312.076 8246191.542 -22045245.677 10 0 60414 51300.00000 0 7130098.635 8977845.900 -22775375.447 10 0 60414 52200.00000 0 4462035.028 9924198.551 -23062699.191 10 0 60414 53100.00000 0 1863582.007 11066241.159 -22901768.856 10 0 60414 54000.00000 0 -602143.089 12373429.996 -22295850.823 10 0 60414 54900.00000 0 -2878759.360 13804879.167 -21256851.836 10 0 60414 55800.00000 0 -4918724.344 15311004.740 -19805077.867 10 0 60414 56700.00000 0 -6685059.033 16835550.695 -17968831.234 10 0 60414 57600.00000 0 -8152625.919 18317911.753 -15783854.211 10 0 60414 58500.00000 0 -9308908.763 19695655.818 -13292630.208 10 0 60414 59400.00000 0 -10154263.610 20907140.459 -10543556.188 10 0 60414 60300.00000 0 -10701632.655 21894114.148 -7590002.381 10 0 60414 61200.00000 0 -10975734.801 22604193.475 -4489277.490 10 0 60414 62100.00000 0 -11011768.546 22993112.837 -1301519.325 10 0 60414 63000.00000 0 -10853683.029 23026652.510 1911467.809 10 0 60414 63900.00000 0 -10552090.991 22682164.455 5087406.573 10 0 60414 64800.00000 0 -10161912.232 21949632.155 8164748.024 10 0 60414 65700.00000 0 -9739847.149 20832219.924 11083858.075 10 0 60414 66600.00000 0 -9341786.929 19346288.472 13788166.368 10 0 60414 67500.00000 0 -9020269.397 17520875.645 16225255.796 10 0 60414 68400.00000 0 -8822087.511 15396663.216 18347872.203 10 0 60414 69300.00000 0 -8786151.045 13024471.967 20114835.301 10 0 60414 70200.00000 0 -8941691.372 10463346.601 21491833.768 10 0 60414 71100.00000 0 -9306885.046 7778308.878 22452089.697 10 0 60414 72000.00000 0 -9887954.499 5037871.011 22976879.860 10 0 60414 72900.00000 0 -10678784.455 2311411.215 23055903.835 10 0 60414 73800.00000 0 -11661071.316 -333480.945 22687491.700 10 0 60414 74700.00000 0 -12805000.691 -2833580.336 21878646.792 10 0 60414 75600.00000 0 -14070426.209 -5132417.124 20644921.925 10 0 60414 76500.00000 0 -15408501.824 -7182384.090 19010130.448 10 0 60414 77400.00000 0 -16763700.533 -8946473.074 17005896.564 10 0 60414 78300.00000 0 -18076135.987 -10399568.467 14671052.415 10 0 60414 79200.00000 0 -19284090.197 -11529243.791 12050892.507 10 0 60414 80100.00000 0 -20326641.342 -12336028.078 9196299.045 10 0 60414 81000.00000 0 -21146280.830 -12833130.964 6162754.630 10 0 60414 81900.00000 0 -21691408.657 -13045638.281 3009261.286 10 0 60414 82800.00000 0 -21918600.751 -13009212.460 -202812.848 10 0 60414 83700.00000 0 -21794551.307 -12768353.300 -3410936.067 10 0 60414 84600.00000 0 -21297606.680 -12374293.571 -6552640.512 10 0 60414 85500.00000 0 -20418824.712 -11882619.659 -9566749.319 99